Location: W�rzburg
(49.7529°N, 9.8822°E)
Time: 10:37:15
(UTC+02:00)

ISS - Visible Passes

Search period start: 13 May 2021 00:00
Search period end: 23 May 2021 00:00
Orbit: 417 x 422 km, 51.6° (Epoch: 13 May)

Date Brightness Start Highest point End Pass type
(mag) Time Alt. Az. Time Alt. Az. Time Alt. Az.
13 May -1.0 00:32:06 11° ENE 00:32:06 11° ENE 00:32:17 10° ENE visible
13 May -3.3 02:05:02 45° WNW 02:05:49 61° N 02:09:10 10° ENE visible
13 May -3.8 03:39:23 10° WNW 03:42:47 86° NNE 03:46:10 10° ESE visible
14 May -3.3 01:18:38 61° NNE 01:18:38 61° NNE 01:21:42 10° ENE visible
14 May -3.6 02:51:56 10° WNW 02:55:19 72° NNE 02:58:42 10° E visible
14 May -3.3 04:28:52 10° W 04:32:02 38° SSW 04:35:12 10° SE visible
14 May -3.1 22:51:08 10° SSW 22:54:12 33° SSE 22:55:35 23° ESE visible
15 May -3.7 00:27:28 10° W 00:30:51 77° NNW 00:34:14 10° ENE visible
15 May -3.4 02:04:29 10° WNW 02:07:50 64° N 02:11:13 10° E visible
15 May -3.7 03:41:21 10° WNW 03:44:40 54° SSW 03:47:59 10° SE visible
15 May -2.6 22:04:11 10° SSW 22:06:53 23° SE 22:09:37 10° E visible
15 May -3.9 23:40:01 10° WSW 23:43:23 86° SSE 23:46:47 10° ENE visible
16 May -3.3 01:17:00 10° W 01:20:21 60° N 01:23:42 10° E visible
16 May -3.9 02:53:53 10° WNW 02:57:17 74° SSW 03:00:39 10° ESE visible
16 May -2.3 04:31:15 10° W 04:33:40 18° SW 04:36:06 10° S visible
16 May -3.9 22:52:38 10° WSW 22:55:58 66° SSE 22:59:19 10° ENE visible
17 May -3.3 00:29:30 10° W 00:32:51 61° N 00:36:13 10° ENE visible
17 May -3.8 02:06:26 10° WNW 02:09:49 86° N 02:13:13 10° ESE visible
17 May -2.8 03:43:30 10° W 03:46:24 27° SW 03:49:18 10° SSE visible
17 May -3.5 22:05:20 10° SW 22:08:35 47° SSE 22:11:50 10° ENE visible
17 May -3.4 23:42:00 10° W 23:45:21 66° N 23:48:43 10° ENE visible
18 May -3.6 01:18:59 10° WNW 01:22:22 72° NNE 01:22:55 56° ENE visible
18 May -3.6 22:54:30 10° W 22:57:52 77° NNW 23:01:15 10° ENE visible
19 May -3.4 00:31:31 10° WNW 00:34:52 64° N 00:36:31 27° E visible
19 May -1.7 02:08:23 10° WNW 02:09:26 18° W 02:09:26 18° W visible
19 May -3.8 22:07:03 10° WSW 22:10:25 87° SSE 22:13:48 10° ENE visible
19 May -3.2 23:44:02 10° W 23:47:22 60° N 23:50:21 13° E visible
20 May -3.0 01:20:55 10° WNW 01:23:16 41° W 01:23:16 41° W visible
20 May -3.2 22:56:31 10° W 22:59:52 61° N 23:03:13 10° ENE visible
21 May -3.8 00:33:27 10° WNW 00:36:51 87° NNE 00:37:12 69° E visible
21 May -3.3 22:09:01 10° W 22:12:22 66° N 22:15:44 10° ENE visible
21 May -3.6 23:45:59 10° WNW 23:49:22 72° N 23:51:10 25° E visible
22 May -1.7 01:22:55 10° W 01:24:06 19° W 01:24:06 19° W visible
22 May -3.4 22:58:31 10° WNW 23:01:53 64° N 23:05:10 10° E visible
